Flag for Micronesia Weather past 2 weeks in Kolonia, Ponape, Micronesia

Now
88 °F

Scattered clouds.


Feels Like: 98 °F
Forecast: 74 / 87 °F
Wind: 6 mph from Northeast

Location: Pohnpei

Current Time: Aug 23, 2014 at 3:38:58 PM

Latest Report: Aug 23, 2014 at 2:55 PM


Visibility: 15 mi

Pressure: 29.81 "Hg

Humidity: 68%

Dew point: 76 °F

Location of KoloniaLocation

Historic Weather in Kolonia — Graph

°F

Kolonia temperature yesterday

Maximum temperature yesterday: 85 °F (at 2:53 PM)
Minimum temperature yesterday: 75 °F (at 2:50 AM)
Average temperature yesterday: 79 °F

Past Weeks' High & Low Weather Summary

 TemperatureHumidityPressure
High91 °F (Aug 19, 10:54 AM)100% (Aug 8, 10:52 PM)29.94 "Hg (Aug 8, 10:52 PM)
Low73 °F (Aug 13, 4:51 AM)62% (Aug 19, 10:54 AM)29.78 "Hg (Aug 8, 3:56 PM)
Average80 °F87%29.86 "Hg
* Reported Aug 8 1:58 PM — Aug 23 1:50 PM, Kolonia, Weather by CustomWeather, © 2014

Note: Actual official high and low records may vary slightly from our data, if they occured in-between our weather recording intervals... More about our weather records

Advertising

Kolonia weather history for previous 24 hours

 ConditionsComfort  
Time TempWeatherWind HumidityBarometerVisibility
1:50 PM
Aug 23
88 °FPassing clouds.6 mph66%29.83 "Hg15 mi
12:55 PM88 °FPassing clouds.6 mph64%29.84 "Hg15 mi
11:52 AM87 °FPassing clouds.7 mph69%29.86 "Hg15 mi
10:54 AM87 °FPassing clouds.5 mph67%29.88 "Hg15 mi
9:50 AM85 °FPassing clouds.2 mph73%29.89 "Hg15 mi
8:52 AM84 °FPassing clouds.1 mph77%29.90 "Hg15 mi
7:50 AM80 °FSunny.3 mph83%29.89 "Hg15 mi
6:50 AM74 °FSunny.6 mph94%29.88 "Hg15 mi
5:50 AM74 °FClear.6 mph95%29.86 "Hg15 mi
4:50 AM74 °FClear.5 mph95%29.86 "Hg15 mi
3:50 AM75 °FClear.3 mph96%29.86 "Hg15 mi
2:50 AM74 °FClear.3 mph97%29.86 "Hg15 mi
1:50 AM75 °FPassing clouds.3 mph98%29.87 "Hg15 mi
12:50 AM76 °FPartly cloudy.5 mph97%29.89 "Hg15 mi
11:53 PM
Aug 22
76 °FPassing clouds.No wind96%29.90 "Hg15 mi
10:53 PM77 °FPassing clouds.3 mph95%29.91 "Hg15 mi
9:50 PM78 °FPartly cloudy.3 mph96%29.90 "Hg15 mi
8:52 PM78 °FPassing clouds.3 mph94%29.89 "Hg15 mi
7:53 PM79 °FOvercast.3 mph94%29.88 "Hg15 mi
6:52 PM81 °FMostly cloudy.3 mph88%29.85 "Hg15 mi
5:51 PM82 °FCloudy.3 mph82%29.83 "Hg15 mi
4:53 PM83 °FCloudy.6 mph75%29.82 "Hg15 mi
3:54 PM84 °FMostly cloudy.6 mph80%29.81 "Hg15 mi
Weather by CustomWeather, © 2014

See weather overviewHow to use our weather pages